Change the Weather History Date:

Wednesday, September 3, 2014

  Actual Average Record
Temperature  
Mean Temperature 68 °F -  
Max Temperature 77 °F 75 °F 91 °F (1953)
Min Temperature 59 °F 53 °F 33 °F (1976)
Cooling Degree Days 3    
Growing Degree Days 18 (Base 50)    
Moisture  
Dew Point 62 °F    
Average Humidity 77    
Maximum Humidity 97    
Minimum Humidity 57    
Precipitation  
Precipitation 0.00 in - - ()
Sea Level Pressure  
Sea Level Pressure 29.98 in    
Wind  
Wind Speed 6 mph (SW)    
Max Wind Speed 13 mph    
Max Gust Speed 17 mph    
Visibility 9 miles    
Events Fog    
Averages and records for this station are not official NWS values.
T = Trace of Precipitation, MM = Missing Value Source: NWS Daily Summary

Daily Weather History Graph

Daily Weather History Graph

Search for Another Location

Airport or City:

Trip Planner

Search our weather history database for the weather conditions in past years. The results will help you decide how hot, cold, wet, or windy it might be!

Date:

Astronomy

Sep. 03, 2014 Rise Set
Actual Time 7:11 AM EDT 8:17 PM EDT
Civil Twilight 6:41 AM EDT 8:47 PM EDT
Nautical Twilight 6:06 AM EDT 9:22 PM EDT
Astronomical Twilight 5:28 AM EDT 9:59 PM EDT
Moon 4:05 PM EDT (9/3) 12:58 AM EDT (9/3)
Length of Visible Light 14h 05m
Length of Day
13h 06m
Waxing Gibbous, 63% of the Moon is Illuminated
Sep 3
Waxing Gibbous
Sep 8
Full
Sep 15
Last Quarter
Sep 24
New
Oct 1
First Quarter

Hourly Weather History & Observations

Time (EDT) Temp. Dew Point Humidity Pressure Visibility Wind Dir Wind Speed Gust Speed Precip Events Conditions
12:15 AM 69.4 °F 65.5 °F 87% 29.93 in 10.0 mi SSW 5.8 mph - N/A   Clear
12:35 AM 69.4 °F 66.2 °F 89% 29.93 in 10.0 mi SSW 4.6 mph - N/A   Clear
12:55 AM 69.4 °F 66.2 °F 89% 29.94 in 10.0 mi SSW 5.8 mph - N/A   Clear
1:14 AM 69.4 °F 66.2 °F 89% 29.94 in 10.0 mi SSW 9.2 mph - N/A   Clear
1:35 AM 69.4 °F 66.4 °F 90% 29.94 in 10.0 mi SW 8.1 mph - N/A   Clear
1:55 AM 69.4 °F 66.6 °F 91% 29.95 in 10.0 mi SW 9.2 mph - N/A   Clear
2:15 AM 69.4 °F 67.1 °F 92% 29.95 in 10.0 mi SW 9.2 mph - N/A   Scattered Clouds
2:35 AM 69.4 °F 67.5 °F 93% 29.95 in 10.0 mi SW 9.2 mph - N/A   Scattered Clouds
2:55 AM 69.4 °F 67.6 °F 94% 29.95 in 10.0 mi SSW 6.9 mph - N/A   Clear
3:15 AM 69.4 °F 67.6 °F 94% 29.95 in 10.0 mi SW 8.1 mph - N/A   Clear
3:35 AM 69.4 °F 67.6 °F 94% 29.96 in 10.0 mi SW 6.9 mph - N/A   Scattered Clouds
3:53 AM 69.4 °F 68.0 °F 95% 29.96 in 7.0 mi SW 9.2 mph - N/A   Clear
4:15 AM 67.1 °F 65.3 °F 94% 29.96 in 10.0 mi WSW 5.8 mph - N/A   Clear
4:35 AM 67.1 °F 65.3 °F 94% 29.97 in 10.0 mi SW 4.6 mph - N/A   Clear
4:55 AM 67.1 °F 65.3 °F 94% 29.97 in 10.0 mi WSW 3.5 mph - N/A   Clear
5:15 AM 64.6 °F 63.0 °F 94% 29.97 in 10.0 mi SW 3.5 mph - N/A   Clear
5:34 AM 64.9 °F 63.5 °F 95% 29.97 in 10.0 mi Calm Calm - N/A   Clear
5:55 AM 64.0 °F 62.4 °F 94% 29.98 in 5.0 mi Calm Calm - N/A   Clear
6:15 AM 61.9 °F 60.8 °F 96% 29.98 in 4.0 mi Calm Calm - N/A   Clear
6:35 AM 60.8 °F 59.5 °F 96% 29.99 in 0.2 mi Calm Calm - N/A Fog Fog
6:55 AM 59.4 °F 58.3 °F 96% 29.99 in 0.2 mi Calm Calm - N/A Fog Fog
7:15 AM 59.4 °F 58.5 °F 97% 29.99 in 0.2 mi Calm Calm - N/A Fog Fog
7:35 AM 59.4 °F 58.6 °F 97% 29.99 in 0.2 mi Calm Calm - N/A Fog Fog
7:55 AM 59.4 °F 58.6 °F 97% 30.00 in 1.0 mi Calm Calm - N/A   Mist
8:14 AM 60.8 °F 59.9 °F 97% 30.01 in 7.0 mi Calm Calm - N/A   Clear
8:35 AM 62.4 °F 61.7 °F 97% 30.00 in 10.0 mi Calm Calm - N/A   Clear
8:55 AM 67.1 °F 66.2 °F 97% 30.00 in 10.0 mi SW 4.6 mph - N/A   Clear
9:15 AM 69.4 °F 65.7 °F 88% 30.00 in 10.0 mi WSW 5.8 mph - N/A   Clear
9:35 AM 70.2 °F 63.7 °F 80% 30.00 in 10.0 mi WSW 4.6 mph - N/A   Clear
9:54 AM 72.0 °F 64.0 °F 76% 30.01 in 10.0 mi West 3.5 mph - N/A   Clear
10:15 AM 74.5 °F 64.4 °F 71% 30.01 in 10.0 mi West 3.5 mph - N/A   Clear
10:35 AM 74.5 °F 63.3 °F 68% 30.01 in 10.0 mi West 3.5 mph - N/A   Clear
10:55 AM 74.5 °F 63.0 °F 67% 30.00 in 10.0 mi Calm Calm - N/A   Clear
11:15 AM 74.5 °F 62.8 °F 67% 30.01 in 10.0 mi SW 3.5 mph - N/A   Clear
11:35 AM 74.5 °F 62.6 °F 66% 30.01 in 10.0 mi West 5.8 mph - N/A   Clear
11:55 AM 74.5 °F 63.0 °F 67% 30.01 in 10.0 mi WSW 6.9 mph - N/A   Clear
12:15 PM 74.5 °F 63.0 °F 67% 30.02 in 10.0 mi SW 9.2 mph - N/A   Clear
12:34 PM 74.5 °F 62.2 °F 66% 30.02 in 10.0 mi West 9.2 mph - N/A   Clear
12:55 PM 74.5 °F 63.7 °F 69% 30.02 in 10.0 mi WSW 8.1 mph - N/A   Clear
1:15 PM 74.5 °F 64.2 °F 70% 30.02 in 10.0 mi WSW 11.5 mph - N/A   Clear
1:35 PM 74.5 °F 64.0 °F 70% 30.03 in 10.0 mi SW 11.5 mph - N/A   Clear
1:55 PM 74.5 °F 62.8 °F 67% 30.03 in 10.0 mi WSW 10.4 mph - N/A   Clear
2:15 PM 74.5 °F 63.7 °F 69% 30.02 in 10.0 mi SW 10.4 mph - N/A   Clear
2:35 PM 74.7 °F 62.4 °F 66% 30.02 in 10.0 mi WSW 11.5 mph - N/A   Clear
2:54 PM 75.4 °F 62.1 °F 63% 30.01 in 10.0 mi SW 9.2 mph - N/A   Clear
3:15 PM 77.0 °F 62.6 °F 61% 30.01 in 10.0 mi WSW 8.1 mph - N/A   Clear
3:35 PM 77.0 °F 61.7 °F 59% 30.00 in 10.0 mi SSW 11.5 mph - N/A   Clear
3:55 PM 77.0 °F 61.5 °F 59% 30.00 in 10.0 mi SW 9.2 mph - N/A   Clear
4:15 PM 77.0 °F 63.1 °F 62% 30.00 in 10.0 mi SW 9.2 mph - N/A   Clear
4:34 PM 77.0 °F 63.3 °F 63% 29.99 in 10.0 mi SW 10.4 mph - N/A   Clear
4:55 PM 76.5 °F 62.1 °F 61% 29.99 in 10.0 mi SW 12.7 mph 17.3 mph N/A   Clear
5:14 PM 74.8 °F 59.2 °F 58% 29.99 in 10.0 mi SW 11.5 mph - N/A   Clear
5:35 PM 74.5 °F 58.8 °F 58% 30.00 in 10.0 mi SW 12.7 mph - N/A   Clear
5:55 PM 74.5 °F 59.0 °F 58% 29.99 in 10.0 mi SW 10.4 mph - N/A   Clear
6:14 PM 75.9 °F 59.5 °F 57% 29.99 in 10.0 mi SSW 12.7 mph - N/A   Clear
6:35 PM 74.5 °F 59.2 °F 59% 29.99 in 10.0 mi SW 9.2 mph - N/A   Clear
6:55 PM 74.5 °F 59.4 °F 59% 29.99 in 10.0 mi South 10.4 mph - N/A   Clear
7:15 PM 74.5 °F 60.3 °F 61% 29.99 in 10.0 mi South 6.9 mph - N/A   Clear
7:35 PM 74.5 °F 61.2 °F 63% 29.99 in 10.0 mi South 5.8 mph - N/A   Clear
7:54 PM 72.1 °F 59.5 °F 64% 29.97 in 10.0 mi SSE 8.1 mph - N/A   Clear
8:15 PM 70.7 °F 58.5 °F 65% 29.96 in 10.0 mi SSE 6.9 mph - N/A   Clear
8:35 PM 69.4 °F 58.1 °F 67% 29.96 in 10.0 mi SSE 4.6 mph - N/A   Clear
8:54 PM 69.4 °F 58.6 °F 68% 29.97 in 10.0 mi SSE 3.5 mph - N/A   Clear
9:15 PM 69.4 °F 59.2 °F 70% 29.97 in 10.0 mi SSE 3.5 mph - N/A   Clear
9:35 PM 69.4 °F 59.7 °F 71% 29.97 in 10.0 mi Calm Calm - N/A   Clear
9:55 PM 69.4 °F 60.3 °F 73% 29.97 in 10.0 mi SSE 5.8 mph - N/A   Clear
10:15 PM 68.5 °F 59.4 °F 72% 29.96 in 10.0 mi SSE 4.6 mph - N/A   Clear
10:34 PM 67.1 °F 58.3 °F 73% 29.95 in 10.0 mi SE 4.6 mph - N/A   Clear
10:55 PM 66.4 °F 58.1 °F 75% 29.96 in 10.0 mi SSE 4.6 mph - N/A   Clear
11:15 PM 67.1 °F 58.5 °F 74% 29.96 in 10.0 mi SSE 5.8 mph - N/A   Clear
11:55 PM 67.1 °F 58.3 °F 73% 29.96 in 10.0 mi SSE 4.6 mph - N/A   Clear